Tracking 18852 objects as of 23-Nov-2017
HD Live streaming from Space Station
objects crossing your sky now

FENGYUN 1C DEB

Track FENGYUN 1C DEB now!
10-day predictions


NORAD ID: 38492
Int'l Code: 1999-025ESB
Perigee: 797.2 km
Apogee: 1,219.6 km
Inclination: 98.6 °
Period: 105.1 minutes
Semi major axis: 7379 km
RCS: 0.0084 m2 (small)
Launch date: May 10, 1999
Source: People's Republic of China (PRC)
Launch site: Taiyaun Space Center, China (TSC)

Note: This is SATELLITE DEBRIS
aabbcc
Your satellite tracking list
Your tracking list is empty




NASA's NSSDC Master Catalog

Two Line Element Set (TLE):
1 38492U 99025ESB 17325.66830144  .00001272  00000-0  11252-2 0  9996
2 38492  98.6153 271.8629 0286150 141.6272 220.5616 13.69529934350348
Source of the keplerian elements: AFSPC